Weather reports worldwide

Advertisment
La Coruna, Spain (8001): temperature & dewpoint: 16.09.2018 15:00:00 - 22.09.2018 15:00:00 (CEST)La Coruna, Spain (8001): wind speed: 16.09.2018 15:00:00 - 22.09.2018 15:00:00 (CEST)La Coruna, Spain (8001): wind direction: 16.09.2018 15:00:00 - 22.09.2018 15:00:00 (CEST)La Coruna, Spain (8001): reduced air pressure: 16.09.2018 15:00:00 - 22.09.2018 15:00:00 (CEST)La Coruna, Spain (8001): visibility: 16.09.2018 15:00:00 - 22.09.2018 15:00:00 (CEST)La Coruna, Spain (8001): precipitation: 16.09.2018 15:00:00 - 22.09.2018 15:00:00 (CEST)
Date & Time tt [°C] td [°C] ff [km/h] ff [kn] dd ppp [hPa] vv [km] rr [mm]
22.09.2018 15:00:00 23,2 18,1 13 7 WNW 1024,2 20 0,0
22.09.2018 14:00:00 22,7 18,2 18 10 WNW 1024,3 25 -
22.09.2018 13:00:00 23,2 18,3 9 5 W 1024,5 20 0,0
22.09.2018 12:00:00 22,2 18,6 13 7 W 1024,3 20 0,0
22.09.2018 11:00:00 21,0 17,8 9 5 WNW 1024,1 20 -
22.09.2018 10:00:00 19,0 17,8 4 2 SE 1023,5 18 0,0
22.09.2018 09:00:00 16,6 16,4 4 2 SE 1023,3 10 0,0
22.09.2018 08:00:00 16,2 16,0 2 1 SSE 1022,8 10 -
22.09.2018 07:00:00 16,4 16,2 2 1 E 1022,5 4,2 0,0
22.09.2018 06:00:00 16,7 16,5 2 1 E 1022,3 0,6 0,0
22.09.2018 05:00:00 17,0 16,8 2 1 ESE 1022,3 0,5 -
22.09.2018 04:00:00 17,4 17,2 4 2 SE 1022,5 0,7 0,0
22.09.2018 03:00:00 17,7 17,5 4 2 SSE 1022,6 0,3 0,0
22.09.2018 02:00:00 17,9 17,4 5 3 SE 1022,7 0,5 -
22.09.2018 01:00:00 18,1 17,6 5 3 SSE 1022,9 6 0,0
22.09.2018 00:00:00 18,5 18,0 8 4 SSE 1023,1 - 0,0
21.09.2018 23:00:00 18,6 17,8 5 3 SE 1023,0 10 -
21.09.2018 22:00:00 18,3 17,1 4 2 ESE 1022,8 11 0,0
21.09.2018 21:00:00 18,3 17,0 2 1 NE 1022,6 11 0,0
21.09.2018 20:00:00 18,6 17,1 4 2 NE 1022,5 11 -
21.09.2018 19:00:00 18,9 17,4 2 1 ESE 1022,3 17 0,0
21.09.2018 18:00:00 18,1 16,9 4 2 NNW 1022,5 13 0,2
21.09.2018 17:00:00 17,4 16,3 9 5 NNW 1022,8 2,9 -
21.09.2018 16:00:00 18,7 16,5 5 3 NNW 1022,7 16 0,0
21.09.2018 15:00:00 18,7 16,5 5 3 NNE 1022,5 16 0,0
21.09.2018 14:00:00 17,8 16,5 11 6 N 1022,9 12 -
21.09.2018 13:00:00 17,4 16,6 8 4 N 1022,9 9 0,0
21.09.2018 12:00:00 17,1 16,6 4 2 N 1022,5 11 0,0
21.09.2018 11:00:00 16,9 16,6 9 5 NNW 1022,1 1,5 -
21.09.2018 10:00:00 17,9 17,1 5 3 WNW 1021,2 3,6 1,0
21.09.2018 09:00:00 18,2 17,2 11 6 W 1020,6 2,7 0,8
21.09.2018 08:00:00 20,7 16,1 21 11 SSW 1019,2 15 -
21.09.2018 07:00:00 20,0 16,0 9 5 SSW 1019,0 19 0,0
21.09.2018 06:00:00 19,6 15,7 9 5 SSW 1019,0 19 0,0
21.09.2018 05:00:00 19,5 15,8 15 8 SSW 1018,9 15 -
21.09.2018 04:00:00 19,4 15,7 2 1 WSW 1019,1 18 0,0
21.09.2018 03:00:00 19,7 15,6 5 3 SSW 1019,1 18 0,0
21.09.2018 02:00:00 19,8 15,6 8 4 SSW 1019,1 15 -
21.09.2018 01:00:00 20,0 15,6 8 4 S 1019,2 19 0,0
21.09.2018 00:00:00 20,1 15,9 9 5 SSW 1019,1 19 0,0
20.09.2018 23:00:00 20,3 16,3 11 6 SSW 1019,4 18 -
20.09.2018 22:00:00 20,6 16,2 13 7 SSW 1019,3 18 0,0
20.09.2018 21:00:00 21,2 15,7 11 6 SSW 1018,8 20 0,0
20.09.2018 20:00:00 22,1 15,7 16 9 SW 1018,7 19 -
20.09.2018 19:00:00 23,4 14,7 21 11 SW 1018,8 20 0,0
20.09.2018 18:00:00 23,1 15,7 15 8 W 1018,4 19 0,0
20.09.2018 17:00:00 22,1 15,9 18 10 W 1018,8 19 -
20.09.2018 16:00:00 22,7 16,0 16 9 W 1018,9 19 0,0
20.09.2018 15:00:00 23,4 16,2 8 4 NE 1019,1 18 0,0
20.09.2018 14:00:00 21,8 16,1 9 5 WNW 1019,8 20 -
20.09.2018 13:00:00 20,6 15,2 8 4 ENE 1020,6 19 0,0
20.09.2018 12:00:00 18,9 15,0 5 3 ENE 1021,0 14 0,0
20.09.2018 11:00:00 17,7 14,8 4 2 NE 1020,9 2,0 -
20.09.2018 10:00:00 16,4 14,8 2 1 NNE 1020,8 9 0,0
20.09.2018 09:00:00 14,5 14,2 2 1 ESE 1020,6 2,1 0,0
20.09.2018 08:00:00 14,7 13,9 2 1 E 1020,7 1,6 -
20.09.2018 07:00:00 15,0 14,0 0 0 N 1020,5 6 0,0
20.09.2018 06:00:00 15,5 14,5 2 1 N 1020,6 - 0,0
20.09.2018 05:00:00 16,0 14,9 2 1 NNE 1020,9 10 -
20.09.2018 04:00:00 16,7 15,4 4 2 SSE 1021,1 9 0,0
20.09.2018 03:00:00 17,1 15,6 2 1 SSE 1021,6 10 0,0
20.09.2018 02:00:00 17,5 16,0 2 1 SSE 1022,2 10 -
20.09.2018 01:00:00 17,7 16,4 11 6 SSE 1022,6 9 0,0
20.09.2018 00:00:00 17,1 16,3 8 4 SE 1022,9 7 0,0
19.09.2018 23:00:00 16,9 15,9 4 2 E 1023,0 0,7 -
19.09.2018 22:00:00 17,7 16,4 2 1 WNW 1022,7 11 0,0
19.09.2018 21:00:00 18,5 16,3 9 5 W 1022,1 12 0,0
19.09.2018 20:00:00 19,4 16,4 18 10 W 1022,0 15 -
19.09.2018 19:00:00 20,2 16,6 18 10 W 1021,7 16 0,0
19.09.2018 18:00:00 21,0 17,0 15 8 W 1021,5 19 0,0
19.09.2018 17:00:00 21,6 17,0 16 9 WNW 1021,4 20 -
19.09.2018 16:00:00 22,1 17,0 18 10 WNW 1021,9 20 0,0
19.09.2018 15:00:00 23,6 16,9 11 6 WNW 1021,8 20 0,0
19.09.2018 14:00:00 23,1 16,2 5 3 NNE 1021,9 25 -
19.09.2018 13:00:00 21,6 15,7 5 3 NNE 1022,4 19 0,0
19.09.2018 12:00:00 21,4 15,0 5 3 NE 1022,4 20 0,0
19.09.2018 11:00:00 20,7 14,8 9 5 SE 1021,9 25 -
19.09.2018 10:00:00 18,0 13,9 13 7 SSE 1021,6 17 0,0
19.09.2018 09:00:00 15,3 13,0 2 1 E 1021,2 13 0,0
19.09.2018 08:00:00 15,3 12,8 5 3 SE 1020,7 25 -
19.09.2018 07:00:00 15,6 12,7 8 4 SSE 1020,2 14 0,0
19.09.2018 06:00:00 16,1 13,0 11 6 S 1020,1 15 0,0
19.09.2018 05:00:00 16,4 13,1 11 6 S 1020,2 18 -
19.09.2018 04:00:00 16,6 13,3 4 2 SSE 1020,4 14 0,0
19.09.2018 03:00:00 17,1 13,8 4 2 SSE 1020,6 13 0,0
19.09.2018 02:00:00 17,9 13,8 8 4 S 1020,3 18 -
19.09.2018 01:00:00 18,0 13,7 8 4 S 1020,4 15 0,0
19.09.2018 00:00:00 18,3 13,8 5 3 SSE 1020,1 15 0,0
18.09.2018 23:00:00 19,1 13,7 8 4 SSE 1020,2 18 -
18.09.2018 22:00:00 19,2 13,6 13 7 WSW 1019,8 17 0,0
18.09.2018 21:00:00 19,3 13,2 15 8 W 1019,2 19 0,0
18.09.2018 20:00:00 20,1 13,8 13 7 W 1018,6 18 -
18.09.2018 19:00:00 20,4 13,6 16 9 W 1018,1 19 0,0
18.09.2018 18:00:00 21,3 13,2 21 11 W 1018,0 20 0,0
18.09.2018 17:00:00 21,5 13,7 16 9 W 1017,9 19 -
18.09.2018 16:00:00 22,5 13,8 21 11 W 1017,9 19 0,0
18.09.2018 15:00:00 22,6 13,6 16 9 W 1018,2 20 0,0
18.09.2018 14:00:00 21,6 14,7 18 10 W 1018,3 18 -
18.09.2018 13:00:00 21,4 15,7 18 10 WNW 1018,3 19 0,0
18.09.2018 12:00:00 20,8 16,0 9 5 WNW 1018,0 19 0,0
18.09.2018 11:00:00 21,7 15,1 15 8 SSW 1017,7 20 -
18.09.2018 10:00:00 20,3 15,7 2 1 W 1017,1 20 0,0
18.09.2018 09:00:00 18,2 15,8 5 3 SE 1016,6 17 0,0
18.09.2018 08:00:00 19,1 15,8 5 3 SW 1016,2 15 -
18.09.2018 07:00:00 19,4 17,0 2 1 SE 1015,8 20 0,0
18.09.2018 06:00:00 19,5 16,7 8 4 S 1015,7 20 0,0
18.09.2018 05:00:00 19,4 17,2 4 2 SSE 1015,8 18 -
18.09.2018 04:00:00 19,6 17,0 4 2 SW 1015,8 20 0,0
18.09.2018 03:00:00 19,6 17,0 11 6 SW 1016,1 20 0,0
18.09.2018 02:00:00 19,8 17,0 9 5 WSW 1015,9 18 -
18.09.2018 01:00:00 20,1 17,1 8 4 SW 1016,0 20 0,0
18.09.2018 00:00:00 20,3 17,3 8 4 WSW 1015,8 15 0,0
17.09.2018 23:00:00 20,4 17,2 11 6 W 1015,5 18 -
17.09.2018 22:00:00 21,3 17,5 13 7 SW 1015,1 20 0,0
17.09.2018 21:00:00 21,2 17,4 15 8 SW 1014,6 20 0,0
17.09.2018 20:00:00 21,1 17,3 18 10 WSW 1014,5 20 -
17.09.2018 19:00:00 22,3 16,8 18 10 W 1014,2 20 0,0
17.09.2018 18:00:00 22,8 15,1 11 6 W 1014,2 20 0,0
17.09.2018 17:00:00 23,7 14,9 5 3 NNW 1014,2 20 -
17.09.2018 16:00:00 21,4 15,5 5 3 W 1014,8 20 0,0
17.09.2018 15:00:00 21,0 15,5 11 6 WNW 1014,8 20 0,0
17.09.2018 14:00:00 24,3 12,6 11 6 SSW 1014,5 18 -
17.09.2018 13:00:00 20,0 15,4 4 2 E 1015,3 19 0,0
17.09.2018 12:00:00 17,7 15,0 5 3 W 1016,0 17 0,0
17.09.2018 11:00:00 18,4 15,6 4 2 N 1015,9 0,9 -
17.09.2018 10:00:00 17,5 15,7 4 2 E 1015,6 13 0,0
17.09.2018 09:00:00 16,0 14,7 2 1 NNW 1015,5 12 0,0
17.09.2018 08:00:00 16,1 14,5 2 1 ESE 1015,1 15 -
17.09.2018 07:00:00 17,4 15,2 9 5 S 1015,2 8 0,0
17.09.2018 06:00:00 15,0 14,0 8 4 S 1015,3 10 0,0
17.09.2018 05:00:00 15,5 14,4 4 2 SE 1015,7 15 -
17.09.2018 04:00:00 15,4 14,4 5 3 SE 1016,2 9 0,0
17.09.2018 03:00:00 15,4 14,6 4 2 SE 1017,0 8 0,0
17.09.2018 02:00:00 15,6 14,6 2 1 NE 1017,9 15 -
17.09.2018 01:00:00 16,1 15,1 2 1 ENE 1018,2 8 0,0
17.09.2018 00:00:00 16,2 15,2 2 1 SSE 1019,1 9 0,0
16.09.2018 23:00:00 16,2 15,2 5 3 WSW 1019,8 15 -
16.09.2018 22:00:00 16,5 15,4 8 4 W 1020,1 10 0,0
16.09.2018 21:00:00 17,0 15,5 8 4 NW 1020,0 15 0,0
16.09.2018 20:00:00 17,7 15,7 9 5 NW 1020,0 19 -
16.09.2018 19:00:00 17,8 15,8 8 4 NW 1020,0 18 0,0
16.09.2018 18:00:00 19,0 16,0 9 5 NNW 1020,3 20 0,0
16.09.2018 17:00:00 19,2 16,2 11 6 NNW 1020,9 20 -
16.09.2018 16:00:00 20,2 15,8 13 7 NNW 1021,2 20 0,0
16.09.2018 15:00:00 21,0 16,8 9 5 N 1021,7 19 0,0

tt = temperature
td = dewpoint
ff = wind speed
dd = wind direction
ppp = reduced air pressure
vv = visibility
rr = precipitation

Next stations